Zurück zum Katalog

COSMOS 198

AktivMilitärLEO
NORAD 3081·PAYLOAD·🇷🇺 Russia

Gestartet Dec 27, 1967 von Baikonur Cosmodrome

Loading…

Nächste Überflüge (nächste 24 Stunden)

TLE

AktuellSource: Space-Track

Epoche: Sep 14, 2026, 08:54 UTC

1 03081U 67127A   26257.37127701 -.00000087  00000-0  23736-5 0  9997
2 03081  65.1431  48.3470 0019857  13.1296 347.0283 13.93397790986003

Verfolge COSMOS 198 in Echtzeit mit AllMySat

Download on the App Store